Location: Camaret
(48.2753°N, 4.5961°W)
Time: 11:09:37
(UTC+00:00)

X-37B - Pass Details

Date: 30 January 2021
Orbit: 383 x 391 km, 45.0° (Epoch: 27 February)

Event Time Altitude Azimuth Distance (km) Brightness Sun altitude
Rises 18:58:46 0° 270° (W) 2,274 6.2 -17.4°
Reaches altitude 10° 19:01:23 10° 248° (WSW) 1,418 4.6 -17.8°
Maximum altitude 19:03:25 16° 208° (SSW) 1,120 3.3 -18.1°
Drops below altitude 10° 19:05:27 10° 168° (SSE) 1,416 3.4 -18.5°
Enters shadow 19:05:31 10° 168° (SSE) 1,432 3.4 -18.5°
